Regional Weather Roundup
Issued by NWS Sioux Falls, SD

Home | Current Version | Previous Version | Text Only | Print | Product List | Glossary On
Versions: 1 2 3 4 5 6 7 8 9 10 11 12 13 14 15 16 17 18 19 20 21 22 23 24 25 26 27 28 29 30 31 32 33 34 35 36 37 38 39 40 41 42 43 44 45 46 47 48 49 50
000
ASUS43 KFSD 030410
RWRFSD

WEATHER ROUNDUP FOR SE SOUTH DAKOTA/SW MINNESOTA/NW IOWA
NATIONAL WEATHER SERVICE SIOUX FALLS SD
1100 PM CDT MON MAY 02 2016

NOTE: "FAIR" INDICATES FEW OR NO CLOUDS BELOW 12,000 FEET WITH NO
SIGNIFICANT WEATHER AND OR OBSTRUCTIONS TO VISIBILITY.


SDZ038>040-050-052>070-030500-
SOUTHEAST SOUTH DAKOTA

CITY           SKY/WX    TMP DP  RH WIND       PRES   REMARKS
BROOKINGS      CLEAR     49  37  63 S8        30.03R
CHAMBERLAIN    CLEAR     49  48  94 CALM      30.03S
HURON          CLEAR     48  43  82 E5        30.02R
MADISON        FAIR      46  43  87 NW6       30.05R
MITCHELL       CLEAR     50  46  86 S3        30.03R
SIOUX FALLS    CLEAR     44  38  79 CALM      30.04R
WINNER         CLOUDY    52  43  71 NW8       30.05R
YANKTON        PTCLDY    54  37  54 CALM      30.02S
$$

MNZ071-072-080-081-089-090-097-098-030500-
SOUTHWEST MINNESOTA

CITY           SKY/WX    TMP DP  RH WIND       PRES   REMARKS
FAIRMONT       CLEAR     52  39  62 CALM      30.03S
JACKSON        CLEAR     52  37  58 S6        30.04S
LUVERNE        CLEAR     46  39  76 CALM      30.05R
MARSHALL       PTCLDY    53  37  54 SW10      30.01F
MONTEVIDEO     CLEAR     52  30  43 W3        30.01F
PIPESTONE      CLEAR     50  41  71 CALM      30.04R
REDWOOD FALLS  MOCLDY    52  38  58 S8        30.01S
TRACY          PTCLDY    53  41  64 SW7       30.02F
WINDOM         CLEAR     52  39  62 CALM      30.03F
WORTHINGTON    CLEAR     49  42  77 SW5       30.04S
$$

IAZ001>003-012>014-020>022-031-032-NEZ013-014-SDZ071-030500-
NORTHWEST IOWA

CITY           SKY/WX    TMP DP  RH WIND       PRES   REMARKS
CHEROKEE       CLEAR     43  43  97 CALM      30.05R
DENISON        CLEAR     46  41  81 E3        30.03S
ESTHERVILLE    CLEAR     48  40  73 SW5       30.04R
LE MARS        PTCLDY    48  43  81 CALM      30.05S
ORANGE CITY    CLEAR     52  41  66 CALM      30.05R
SHELDON        CLEAR     46  41  81 CALM      30.03S
SIOUX CITY     CLOUDY    55  45  68 S5        30.04R
SPENCER        CLEAR     47  42  83 S5        30.04R
STORM LAKE     CLEAR     54  36  50 SW5       30.05S
$$

ABBREVIATIONS USED IN REMARKS
   TC - TEMPERATURE IN CELSIUS
  WCI - WIND CHILL INDEX
   HX - HEAT INDEX
  VSB - VISIBILITY





USA.gov is the U.S. government's official web portal to all federal, state and local government web resources and services.